Location: Asheville, NC
(35.6000°N, 82.5500°W)
Time: 15:35:52
(UTC-04:00)

BEESAT 2 - Pass Details

Date: 13 March 2018
Orbit: 502 x 532 km, 64.9° (Epoch: 25 June)

Event Time Altitude Azimuth Distance (km) Brightness Sun altitude
Rises 21:42:49 0° 226° (SW) 2,633 ? -26.3°
Reaches altitude 10° 21:45:04 10° 234° (SW) 1,754 ? -26.7°
Maximum altitude 21:48:46 39° 304° (WNW) 807 ? -27.4°
Enters shadow 21:48:49 38° 306° (NW) 807 ? -27.4°
